Погода Шамахы

Погода Шамахы : погода сейчас, прогноз погоды и архив. Всё, что Вы хотите узнать о погоде Шамахы!

Поиск расширенной информации на нашем сайте:

Другие новости

Новости СМИ2

Главная страница сайта

Новости сайта

03.07.2017

Напоминаем, что на нашем специализированном сайте Метеоцентр.Азия вы можете получить высокодетализированные автоматические прогнозы погоды по пунктам России, СНГ и мира в авиационном формате (включающие направление и скорость ветра, видимость, явления погоды, количество и форму облачности, нижнюю и верхнюю границу облачности).


Погода Шамахы - сегодня

Время (UTC), дата Ветер
(°,м/с) 
Видим.   Явления Облачность Т
(°С)
Тd
(°С)
f(%) Тe
(°С)
Pmin
(гПа)
dP
(гПа)
Po
(мм)
O2
(г/м3)
Тmin Tmax R s Состояние
почвы
15 14.08.18 230 (ЮЗ) 20000 м    8/8 600 м 
[Sc]
+22.2 +12.7 55 +29  1016.1  0.5  692  255           
18 14.08.18 270 (З) 20000 м    6/6 600 м 
[Sc]
+20.6 +13.2 63 +28  1017.1  0.4  692  257    +24.7       
21 14.08.18 280 (З) 20000 м    10/10 600 м 
[Sc]
+18.8 +13.1 69 +28  1018.2  0.4  692  258           
00 15.08.18 270 (З) 20000 м    10/10 600 м 
[Sc]
+17.3 +12.4 73 +25  1018.9  692  260           
03 15.08.18 280 (З) 20000 м    10/10 600 м 
[Sc]
+17 +11.9 72 +24  1019  0.1  693  260           
06 15.08.18 тихо ()   20000 м    10/10 600 м 
[Sc]
+20.2 +15.7 75 +32  1017.6  693  256  +16.8         
09 15.08.18 260 (З) 20000 м    10/10 600 м 
[Sc]
+21 +14.5 66 +31  1017.4  -0.2  692  256           
12 15.08.18 210 (ЮЗ) 20000 м    10/10 600 м 
[Sc]
+21.8 +13.9 61 +31  1015.5  -0.8  692  255           
15 15.08.18 260 (З) 20000 м    10/10 600 м 
[Sc]
+21.5 +15.1 67 +33  1015.5  692  255           
21 15.08.18 260 (З) 20000 м    10/10 600 м 
[Sc]
+19.3 +12.7 66 +28  1018.3  693  258           
00 16.08.18 270 (З) 20000 м    6/6 600 м 
[Sc]
+18.1 +11.1 64 +23  1018  -0.3  692  259           
03 16.08.18 тихо ()   20000 м    10/10 600 м 
[Sc]
+17.7 +13.1 74 +25  1018.3  0.3  693  259           
06 16.08.18 280 (З) 20000 м    3/0 верхняя 
[Ci fib]
+22.9 +13.8 56 +32  1017.3  0.3  693  255  +17.3         
09 16.08.18 200 (Ю) 20000 м    3/3 1000 м 
[Cu hum]
+26 +11.9 41 +32  1015.3  -0.7  692  252           
12 16.08.18 270 (З) 20000 м    ясно 
+27.2 +12.2 39 +33  1013.9  -0.9  692  251           
15 16.08.18 250 (З) 20000 м    ясно 
+25.4 +12 43 +31  1014  -0.5  691  252           
18 16.08.18 170 (Ю) 20000 м    ясно 
+21 +14.3 66 +31  1015.8  0.5  692  256    +27.6       
21 16.08.18 250 (З) 20000 м    ясно 
+19.4 +14.2 72 +30  1015.5  -0.3  691  257           
00 17.08.18 290 (З) 20000 м    ясно 
+18.3 +13.7 75 +28  1015.4  -0.8  691  258           
03 17.08.18 020 (С) 20000 м    ясно 
+18.9 +13.4 70 +28  1014.9  -0.5  690  257           
06 17.08.18 250 (З) 20000 м    ясно 
+23.2 +14 56 +32  1014  0.4  691  254  +17.6         
09 17.08.18 190 (Ю) 20000 м    ясно 
+27.6 +13.9 43 +37  1011.3  -0.7  690  250           
12 17.08.18 170 (Ю) 20000 м    ясно 
+28.8 +13.8 40 +38  1009.9  -1.4  689  248           
15 17.08.18 150 (ЮВ) 20000 м    ясно 
+27 +14.1 45 +36  1010.9  0.3  689  250           
18 17.08.18 280 (З) 20000 м    ясно 
+22.7 +14.4 59 +33  1012.5  0.3  690  253    +29.2       
Время (UTC), дата Ветер
(°,м/с) 
Видим.   Явления Облачность Т
(°С)
Тd
(°С)
f(%) Тe
(°С)
Pmin
(гПа)
dP
(гПа)
Po
(мм)
O2
(г/м3)
Тmin Tmax R s Состояние
почвы

Для получения пояснительной информации подведите курсор к названию столбца.

ПОГОДА Шамахы - архив

Всё, что Вы хотите узнать о погоде Шамахы - удобно и подробно!

Выберите нужную дату (начиная с 1 января 2015* года) и нажмите кнопку "Найти".
Будут отображены архивные сводки погоды по пункту Шамахы, начиная с указанной даты.


Отображать данные в формате CSV (для использования в таблицах Excel)


Внимание! Наш архив погоды предназначен исключительно для личного некоммерческого использования в познавательных целях. Если Вам необходимы официальные справки о состоянии погоды (для производственных, юридических, коммерческих и т.п. целей), обращайтесь в органы Росгидромета.

*Примечание: данная дата относится к архиву по метеостанциям СССР (Россия, СНГ, Балтия).
Архив по метеостанциям Зарубежной Европы и Азии (кроме Китая) хранится 10 дней, по другим регионам земного шара (Китай, Африка, Америка, Австралия, Океания) - 1 день.

Шамахы - район местоположения метеостанции


Название, широта, долгота, высота метеостанции:
Шамахы 40.6°ш. 48.6°д. 749 м над ур. моря [Азербайджан]

Дополнительная информация

В oтличие oт бoльшинства пoгoдных сайтoв мы публикуем пoдрoбную метеoинфoрмацию в детальнoм прoфессиoнальнoм фoрмате.

Характеристики температуры и влажнoсти вoздуха измеряются на высoте 2 м в тени вдали oт зданий и деревьев.
Скoрoсть ветра измеряется на высoте 10 м (на урoвне рoста челoвека скoрoсть ветра ниже в 1.5-2 раза). Если метеoстанция нахoдится в гoрoде или в лесу, тo скoрoсть ветра занижена на 2-4 м/с пo сравнению с oткрытым местoм. Скoрoсть ветра над акватoриями крупных рек и oзёр, а также на вершинах хoлмoв на 2-5 м/с выше, чем в oбычных услoвиях.
Атмoсфернoе давление в разных тoчках местнoсти мoжет значительнo oтличаться oт давления на метеoстанции, в зависимoсти oт услoвий рельефа (при пoдъёме на 10 м давление пoнижается примернo на 1 мм рт.ст.).